YAOGAN-24

Last updated on Mon Jun 22 2026 00:02:51 GMT+0000 (Coordinated Universal Time)

1 40310U 14072A 26172.55565856 .00000937 00000+0 14286-3 0 9997 2 40310 98.1500 309.9308 0012589 247.9105 112.0768 14.76228667624363
UTC large
Height (km)
Speed (km/s)
/
Latitude / Longitude
Inclination (degrees)
Orbital Period (minutes)
Azimuth
Elevation
Range (km)
Doppler Factor

Next 0 passes for location: London (51.5072 / 0.1276)

No passes found over London.
YAOGAN-24